Погода в Будановке

Россия / Курская область     51°56′48″N   36°21′58″E
темп.,
°C
ветер,
м/с
пор.,
м/с
влажн.,
%
обл.,
%
осадки,
мм/ч
давл.,
гПа
погр.,
м
19 января, ср
ср1900:00−8с91789100 0.8 1014623
03:00−10с71591100 0.8 1017472
06:00−11ссз61393100 0.0 1019368
09:00−16ссз379873 0.1 1021105
12:00−14ссз379557 0.0 1021176
15:00−12сз359413 0.0 1021119
18:00−19з2210062 0.0 10219
21:00−20зюз2210075 0.0 102112
20 января, чт
чт2000:00−18ююз239977 0.0 102037
03:00−14ююз379891 0.0 1018115
06:00−13ю499886 0.1 1016135
09:00−12ю5129799 0.1 1015213
12:00−8ю61495100 0.1 1013392
15:00−6ю71494100 0.2 1010488
18:00−5ю71593100 0.1 1008506
21:00−4ююз71494100 0.1 1007662
21 января, пт
пт2100:00−5ю61395100 0.1 1007486
03:00−5ю51196100 1.2 1005414
06:00−5ю4996100 1.7 1003391
09:00−4ююз3697100 2.9 1002287
12:00−3юз5997100 0.6 1001696
15:00−4юз6108854 1.0 1002682
18:00−7ююз61392100 0.0 1002420
21:00−5ююз81595100 0.7 1002827
22 января, сб
сб2200:00−5ююз81593100 0.6 1002685
03:00−5ююз71493100 0.8 1003604
06:00−5ююз61394100 0.3 1004545
09:00−6ю6129491 0.4 1006446
12:00−6ю51094100 0.2 1008481
15:00−5ю5895100 0.4 1009488
18:00−6ююв489592 0.2 1012268
21:00−6ююв489683 0.6 1014244
23 января, вс
вс2300:00−12юв2210087 0.1 101612
03:00−14юв2210095 0.1 101910
06:00−16вюв1110099 0.1 10219
09:00−17в22100100 0.1 102414
12:00−11всв239794 0.1 1026109
15:00−10св359617 0.1 1026128
18:00−14св389754 0.0 102998
21:00−16св41097100 0.0 1030134